^^
Grace C. Lehan Memorial Weather Station Historical Data
Daily Summary for June 4, 2021 Units:  Metric    English   Both
Daily Weekly Monthly Yearly
  High: Low: Average:
Temperature: 10.9 °C -0.1 °C 5.2 °C
Dew Point: 2.9 °C -1.7 °C 0.3 °C
Humidity: 94% 44.5% 73%
Wind Speed: 3.4km/h 0km/h 0.2km/h
Wind Gust: 11.3km/h - -
Wind- - South
Pressure: 1028 hPa 1024.3 hPa -
Precipitation: 0 mm    
 
 
Tabular Data for June 4, 2021
Time Temperature Dew Point Pressure Wind Wind Speed Wind Gust Humidity Rainfall Rate (Hourly) solar
00:04 4.7 °C 0.3 °C 1025.6 hPa Calm     73% 0 mm 0 W/m2
00:09 4.7 °C 0.3 °C 1025.6 hPa Calm     73% 0 mm 0 W/m2
00:14 4.6 °C 0.3 °C 1025.6 hPa Calm   1.6 km/h 73.8% 0 mm 0 W/m2
00:19 4.6 °C 0.3 °C 1025.6 hPa Calm   1.6 km/h 74% 0 mm 0 W/m2
00:24 4.4 °C 0.4 °C 1026 hPa Calm   1.6 km/h 74.7% 0 mm 0 W/m2
00:29 4.3 °C 0.3 °C 1026 hPa Calm   1.6 km/h 75% 0 mm 0 W/m2
00:34 4.2 °C 0.3 °C 1026 hPa Calm   1.6 km/h 75.5% 0 mm 0 W/m2
00:39 4.1 °C 0.2 °C 1026 hPa Calm     76% 0 mm 0 W/m2
00:44 3.9 °C 0.1 °C 1026 hPa Calm     76% 0 mm 0 W/m2
00:49 3.9 °C 0.1 °C 1026 hPa Calm     76.4% 0 mm 0 W/m2
00:54 3.8 °C 0.2 °C 1026 hPa Calm     77% 0 mm 0 W/m2
00:59 3.7 °C 0.2 °C 1026 hPa Calm     78% 0 mm 0 W/m2
01:04 3.6 °C 0.2 °C 1026 hPa Calm     78% 0 mm 0 W/m2
01:09 3.5 °C 0.2 °C 1026 hPa Calm     78.8% 0 mm 0 W/m2
01:14 3.4 °C 0.1 °C 1026 hPa Calm     79% 0 mm 0 W/m2
01:19 3.3 °C 0.1 °C 1025.6 hPa Calm     79.3% 0 mm 0 W/m2
01:24 3.2 °C 0.1 °C 1026 hPa Calm     80% 0 mm 0 W/m2
01:29 3.1 °C -0.1 °C 1025.6 hPa Calm     80% 0 mm 0 W/m2
01:34 2.9 °C -0.1 °C 1026 hPa Calm     80.4% 0 mm 0 W/m2
01:39 2.8 °C -0.1 °C 1026 hPa Calm     81% 0 mm 0 W/m2
01:44 2.7 °C -0.1 °C 1026 hPa Calm     82% 0 mm 0 W/m2
01:49 2.7 °C -0.1 °C 1025.6 hPa Calm     82% 0 mm 0 W/m2
01:54 2.6 °C -0.1 °C 1025.6 hPa Calm     82.6% 0 mm 0 W/m2
01:59 2.4 °C -0.1 °C 1025.6 hPa Calm     83% 0 mm 0 W/m2
02:04 2.4 °C -0.2 °C 1025.6 hPa Calm     83% 0 mm 0 W/m2
02:09 2.3 °C -0.3 °C 1025.6 hPa Calm     83% 0 mm 0 W/m2
02:14 2.2 °C -0.3 °C 1025.6 hPa Calm     83.3% 0 mm 0 W/m2
02:19 2.2 °C -0.2 °C 1026 hPa Calm     84% 0 mm 0 W/m2
02:24 2.2 °C -0.1 °C 1025.6 hPa Calm     84.8% 0 mm 0 W/m2
02:29 2.2 °C -0.1 °C 1025.6 hPa Calm     85% 0 mm 0 W/m2
02:34 2 °C -0.2 °C 1026 hPa Calm     85% 0 mm 0 W/m2
02:39 1.9 °C -0.4 °C 1026 hPa Calm     85% 0 mm 0 W/m2
02:44 1.8 °C -0.4 °C 1026 hPa Calm     85.6% 0 mm 0 W/m2
02:49 1.7 °C -0.4 °C 1026 hPa Calm     86% 0 mm 0 W/m2
02:54 1.6 °C -0.4 °C 1026 hPa Calm     86% 0 mm 0 W/m2
02:59 1.6 °C -0.4 °C 1025.6 hPa Calm     86.5% 0 mm 0 W/m2
03:04 1.5 °C -0.4 °C 1026 hPa Calm     87% 0 mm 0 W/m2
03:09 1.4 °C -0.5 °C 1026 hPa Calm     87% 0 mm 0 W/m2
03:14 1.3 °C -0.4 °C 1026 hPa Calm     87.7% 0 mm 0 W/m2
03:19 1.3 °C -0.5 °C 1026 hPa Calm     88% 0 mm 0 W/m2
03:24 1.3 °C -0.5 °C 1026 hPa Calm     88% 0 mm 0 W/m2
03:29 1.3 °C -0.3 °C 1026 hPa Calm     88.8% 0 mm 0 W/m2
03:34 1.3 °C -0.3 °C 1026 hPa Calm   3.2 km/h 89% 0 mm 0 W/m2
03:39 1.3 °C -0.3 °C 1026 hPa Calm   3.2 km/h 89% 0 mm 0 W/m2
03:44 1.3 °C -0.3 °C 1026 hPa Calm   3.2 km/h 89% 0 mm 0 W/m2
03:49 1.3 °C -0.3 °C 1026 hPa Calm   3.2 km/h 89% 0 mm 0 W/m2
03:54 1.2 °C -0.4 °C 1026 hPa Calm   3.2 km/h 89% 0 mm 0 W/m2
03:59 1.2 °C -0.4 °C 1026 hPa Calm   3.2 km/h 89% 0 mm 0 W/m2
04:00 1.2 °C -0.4 °C 1026 hPa Calm   3.2 km/h 89% 0 mm 0 W/m2
04:09 1.1 °C -0.5 °C 1026 hPa Calm     89% 0 mm 0 W/m2
04:14 1 °C -0.3 °C 1026 hPa Calm     90.9% 0 mm 0 W/m2
04:19 1 °C -0.2 °C 1026 hPa Calm     91.9% 0 mm 0 W/m2
04:24 0.9 °C -0.5 °C 1026 hPa Calm     90% 0 mm 0 W/m2
04:29 0.9 °C -0.6 °C 1026 hPa Calm     90% 0 mm 0 W/m2
04:34 0.9 °C -0.6 °C 1026 hPa Calm     90% 0 mm 0 W/m2
04:39 0.8 °C -0.6 °C 1026 hPa Calm     90% 0 mm 0 W/m2
04:44 0.8 °C -0.6 °C 1026 hPa Calm     90.1% 0 mm 0 W/m2
04:49 0.8 °C -0.6 °C 1026.3 hPa Calm     90.2% 0 mm 0 W/m2
04:54 0.8 °C -0.6 °C 1026.3 hPa Calm     90% 0 mm 0 W/m2
04:59 0.8 °C -0.6 °C 1026.3 hPa Calm     90% 0 mm 0 W/m2
05:04 0.8 °C -0.7 °C 1026.3 hPa Calm     90% 0 mm 0 W/m2
05:09 0.8 °C -0.5 °C 1026.3 hPa Calm     91% 0 mm 0 W/m2
05:14 0.8 °C -0.5 °C 1026.3 hPa Calm     91% 0 mm 0 W/m2
05:19 0.8 °C -0.4 °C 1026.3 hPa Calm     91% 0 mm 0 W/m2
05:24 0.8 °C -0.4 °C 1026.3 hPa Calm     91% 0 mm 0 W/m2
05:29 0.8 °C -0.4 °C 1026.3 hPa Calm     91% 0 mm 0 W/m2
05:34 0.8 °C -0.5 °C 1026.6 hPa Calm     91% 0 mm 0 W/m2
05:39 0.8 °C -0.5 °C 1026.6 hPa Calm     91% 0 mm 0 W/m2
05:44 0.7 °C -0.6 °C 1026.6 hPa Calm     91% 0 mm 0 W/m2
05:49 0.7 °C -0.6 °C 1026.6 hPa Calm     91% 0 mm 0 W/m2
05:54 0.7 °C -0.6 °C 1026.6 hPa Calm     91% 0 mm 0 W/m2
05:59 0.7 °C -0.6 °C 1026.6 hPa Calm     91% 0 mm 0 W/m2
06:04 0.7 °C -0.7 °C 1027 hPa Calm     91% 0 mm 0 W/m2
06:09 0.6 °C -0.7 °C 1027 hPa Calm     91% 0 mm 0 W/m2
06:14 0.6 °C -0.8 °C 1027 hPa Calm     91% 0 mm 0 W/m2
06:19 0.5 °C -0.8 °C 1027 hPa Calm     91% 0 mm 0 W/m2
06:24 0.4 °C -0.8 °C 1027 hPa Calm     91% 0 mm 0 W/m2
06:29 0.4 °C -0.9 °C 1027 hPa Calm     91% 0 mm 0 W/m2
06:34 0.4 °C -0.9 °C 1027 hPa Calm     91% 0 mm 0 W/m2
06:39 0.4 °C -0.9 °C 1027 hPa Calm     91.4% 0 mm 0 W/m2
06:44 0.3 °C -0.8 °C 1027 hPa Calm     92% 0 mm 0 W/m2
06:49 0.3 °C -0.8 °C 1027 hPa Calm     92% 0 mm 0 W/m2
06:54 0.3 °C -0.8 °C 1027 hPa Calm     92% 0 mm 0 W/m2
06:59 0.3 °C -0.9 °C 1027 hPa Calm     91.5% 0 mm 0 W/m2
07:04 0.2 °C -0.9 °C 1027 hPa Calm     92% 0 mm 0 W/m2
07:09 0.2 °C -0.9 °C 1027.3 hPa Calm     92% 0 mm 0 W/m2
07:14 0.2 °C -0.9 °C 1027.3 hPa Calm     92% 0 mm 0 W/m2
07:19 0.2 °C -1 °C 1027.3 hPa Calm     92% 0 mm 0 W/m2
07:24 0.2 °C -1 °C 1027.3 hPa Calm     92% 0 mm 0 W/m2
07:29 0.1 °C -1.1 °C 1027.3 hPa Calm     92% 0 mm 0 W/m2
07:34 0.1 °C -1.1 °C 1027.3 hPa Calm     92% 0 mm 5 W/m2
07:39 0 °C -1.2 °C 1027.3 hPa Calm     92% 0 mm 5 W/m2
07:44 -0.1 °C -1.2 °C 1027.3 hPa Calm     92% 0 mm 11 W/m2
07:49 -0.1 °C -1.2 °C 1027.7 hPa Calm     92% 0 mm 18 W/m2
07:54 -0.1 °C -1.2 °C 1027.7 hPa Calm     92% 0 mm 23 W/m2
07:59 -0.1 °C -1.2 °C 1027.7 hPa Calm     92% 0 mm 19 W/m2
08:00 0 °C -1.2 °C 1027.7 hPa Calm     92% 0 mm 19 W/m2
08:09 0.2 °C -0.8 °C 1027.7 hPa Calm     93% 0 mm 39 W/m2
08:14 0.3 °C -0.7 °C 1027.7 hPa Calm     93% 0 mm 39 W/m2
08:19 0.4 °C -0.6 °C 1027.7 hPa Calm     93% 0 mm 39 W/m2
08:24 0.6 °C -0.4 °C 1028 hPa Calm     93% 0 mm 70 W/m2
08:29 0.7 °C -0.3 °C 1028 hPa Calm     93% 0 mm 47 W/m2
08:34 0.8 °C -0.2 °C 1028 hPa Calm     93% 0 mm 51 W/m2
08:39 0.9 °C -0.1 °C 1028 hPa Calm     93% 0 mm 51 W/m2
08:44 1.1 °C 0.1 °C 1028 hPa Calm     93% 0 mm 56 W/m2
08:49 1.2 °C 0.2 °C 1028 hPa Calm     93% 0 mm 58 W/m2
08:54 1.3 °C 0.3 °C 1028 hPa Calm     93% 0 mm 116 W/m2
08:59 1.5 °C 0.5 °C 1028 hPa Calm     93% 0 mm 218 W/m2
09:04 1.8 °C 0.9 °C 1027.7 hPa Calm     93.7% 0 mm 274 W/m2
09:09 2.3 °C 1.4 °C 1027.7 hPa Calm     94% 0 mm 287 W/m2
09:14 2.8 °C 1.9 °C 1027.7 hPa Calm     94% 0 mm 299 W/m2
09:19 3.3 °C 2.3 °C 1027.7 hPa NW 0.8 km/h 3.2 km/h 92.8% 0 mm 311 W/m2
09:24 3.9 °C 2.6 °C 1027.7 hPa Calm   3.2 km/h 90.7% 0 mm 322 W/m2
09:29 4.4 °C 2.7 °C 1027.7 hPa Calm   3.2 km/h 88.3% 0 mm 334 W/m2
09:34 5.1 °C 2.9 °C 1028 hPa Calm   3.2 km/h 85.8% 0 mm 348 W/m2
09:39 5.6 °C 2.8 °C 1028 hPa Calm   1.6 km/h 82.5% 0 mm 362 W/m2
09:44 5.9 °C 2.7 °C 1028 hPa Calm   1.6 km/h 79.5% 0 mm 374 W/m2
09:49 6.2 °C 2.9 °C 1027.7 hPa NNW 0.8 km/h 4.8 km/h 79% 0 mm 387 W/m2
09:54 6.6 °C 2.9 °C 1027.7 hPa NNW 0.2 km/h 4.8 km/h 77.2% 0 mm 396 W/m2
09:59 6.8 °C 2.7 °C 1027.7 hPa NNW 0.2 km/h 4.8 km/h 75.1% 0 mm 408 W/m2
10:04 6.9 °C 2.7 °C 1027.7 hPa NNW 1.4 km/h 6.4 km/h 74.5% 0 mm 420 W/m2
10:09 7.2 °C 2.7 °C 1027.7 hPa Calm   6.4 km/h 73.1% 0 mm 429 W/m2
10:14 7.4 °C 2.8 °C 1027.7 hPa NNW 0.2 km/h 6.4 km/h 72.5% 0 mm 443 W/m2
10:19 7.7 °C 2.8 °C 1027.7 hPa NNW 0.5 km/h 6.4 km/h 71.6% 0 mm 443 W/m2
10:24 7.8 °C 2.7 °C 1027.3 hPa NNW 0.8 km/h 6.4 km/h 70% 0 mm 192 W/m2
10:29 7.7 °C 2.5 °C 1027.7 hPa NE 2.1 km/h 6.4 km/h 69.4% 0 mm 443 W/m2
10:34 7.5 °C 1.9 °C 1027.7 hPa ENE 1.3 km/h 6.4 km/h 68% 0 mm 471 W/m2
10:39 7.2 °C 1.9 °C 1027.7 hPa ENE 0.5 km/h 6.4 km/h 68.7% 0 mm 494 W/m2
10:44 7.2 °C 2 °C 1027.3 hPa ENE 0.6 km/h 6.4 km/h 69.5% 0 mm 504 W/m2
10:49 7.2 °C 2 °C 1027.3 hPa ENE 0.6 km/h 6.4 km/h 69.3% 0 mm 510 W/m2
10:54 7.2 °C 1.9 °C 1027.3 hPa Calm   6.4 km/h 69.2% 0 mm 512 W/m2
10:59 7.4 °C 2.3 °C 1027.3 hPa ENE 0.5 km/h 6.4 km/h 70% 0 mm 424 W/m2
11:04 7.6 °C 2.4 °C 1027.7 hPa ENE 0.5 km/h 6.4 km/h 69.5% 0 mm 213 W/m2
11:09 7.6 °C 2 °C 1027.3 hPa NE 0.5 km/h 4.8 km/h 67.8% 0 mm 540 W/m2
11:14 7.7 °C 2.2 °C 1027.3 hPa Calm   4.8 km/h 68.2% 0 mm 545 W/m2
11:19 7.9 °C 2.2 °C 1027.3 hPa Calm   4.8 km/h 67% 0 mm 548 W/m2
11:24 8.2 °C 2.3 °C 1027.7 hPa NE 0.6 km/h 6.4 km/h 66.1% 0 mm 561 W/m2
11:29 8.5 °C 2.3 °C 1027.7 hPa Calm   6.4 km/h 65.1% 0 mm 566 W/m2
11:34 8.7 °C 2.4 °C 1027.7 hPa NNE 0.3 km/h 6.4 km/h 64.3% 0 mm 571 W/m2
11:39 9 °C 2.6 °C 1027.7 hPa NW 1.4 km/h 8 km/h 64% 0 mm 575 W/m2
11:44 9.3 °C 2.5 °C 1027.3 hPa NW 1 km/h 8 km/h 62.4% 0 mm 520 W/m2
11:49 9.5 °C 2.1 °C 1027.3 hPa NNW 1.8 km/h 11.3 km/h 60% 0 mm 355 W/m2
11:54 9.4 °C 2.2 °C 1027.3 hPa NW 2.4 km/h 11.3 km/h 60.3% 0 mm 457 W/m2
11:59 9.4 °C 1.9 °C 1027 hPa NW 0.8 km/h 11.3 km/h 59.3% 0 mm 432 W/m2
12:00 9.4 °C 2.3 °C 1027 hPa WNW 3.2 km/h 11.3 km/h 61% 0 mm 40 W/m2
12:09 9.5 °C 2.2 °C 1027 hPa WNW 0.3 km/h 3.2 km/h 60.2% 0 mm 399 W/m2
12:14 9.7 °C 1.9 °C 1026.6 hPa NNE 1.4 km/h 8 km/h 58.6% 0 mm 441 W/m2
12:19 9.7 °C 1.3 °C 1026.6 hPa ENE 3.4 km/h 8 km/h 56.1% 0 mm 387 W/m2
12:24 9.4 °C 0.7 °C 1026.3 hPa East 1.4 km/h 8 km/h 54.4% 0 mm 155 W/m2
12:29 9.2 °C 1.1 °C 1026.3 hPa ENE 0.5 km/h 8 km/h 56.6% 0 mm 155 W/m2
12:34 9.1 °C 1 °C 1026.3 hPa ENE 0.2 km/h 8 km/h 56.7% 0 mm 183 W/m2
12:39 9.2 °C 1.4 °C 1026.3 hPa Calm   1.6 km/h 58.3% 0 mm 287 W/m2
12:44 9.3 °C 0.9 °C 1026.3 hPa ENE 1 km/h 3.2 km/h 55.9% 0 mm 287 W/m2
12:49 9.4 °C 0.8 °C 1026.3 hPa NE 1.3 km/h 4.8 km/h 54.9% 0 mm 299 W/m2
12:54 9.6 °C 0.8 °C 1026 hPa North 0.6 km/h 4.8 km/h 54.4% 0 mm 176 W/m2
12:59 9.6 °C 0.8 °C 1026 hPa North 0.3 km/h 4.8 km/h 54% 0 mm 199 W/m2
13:04 9.7 °C 1.2 °C 1026 hPa North 0.2 km/h 4.8 km/h 55.2% 0 mm 541 W/m2
13:09 9.8 °C 0.6 °C 1025.6 hPa North 1 km/h 4.8 km/h 52.8% 0 mm 322 W/m2
13:14 9.8 °C 0.9 °C 1025.6 hPa North 1.4 km/h 4.8 km/h 54.1% 0 mm 276 W/m2
13:19 9.9 °C 1 °C 1025.6 hPa NNW 0.6 km/h 6.4 km/h 53.8% 0 mm 441 W/m2
13:24 10.1 °C 1.1 °C 1025.6 hPa NNW 0.3 km/h 6.4 km/h 53.7% 0 mm 536 W/m2
13:29 10.2 °C 0.5 °C 1025.6 hPa Calm   6.4 km/h 50.9% 0 mm 504 W/m2
13:34 10.2 °C 0.6 °C 1025.3 hPa Calm   6.4 km/h 51% 0 mm 480 W/m2
13:39 10.3 °C 0.6 °C 1025.3 hPa Calm     51% 0 mm 297 W/m2
13:44 10.3 °C 0.9 °C 1025.3 hPa Calm   1.6 km/h 51.9% 0 mm 167 W/m2
13:49 10.4 °C 0.6 °C 1025.3 hPa Calm   1.6 km/h 50.4% 0 mm 167 W/m2
13:54 10.3 °C 0.4 °C 1025.3 hPa Calm   1.6 km/h 50.1% 0 mm 434 W/m2
13:59 10.3 °C 0.4 °C 1025.3 hPa Calm   1.6 km/h 50.4% 0 mm 455 W/m2
14:04 10.3 °C 0.2 °C 1025.3 hPa NNW 0.2 km/h 1.6 km/h 49.4% 0 mm 276 W/m2
14:09 10.5 °C 0.5 °C 1024.9 hPa Calm   1.6 km/h 50% 0 mm 376 W/m2
14:14 10.7 °C 0.7 °C 1024.9 hPa NW 1.4 km/h 6.4 km/h 49.8% 0 mm 209 W/m2
14:19 10.8 °C 0.3 °C 1024.9 hPa WNW 0.2 km/h 6.4 km/h 48.5% 0 mm 220 W/m2
14:24 10.8 °C 0.6 °C 1024.9 hPa Calm   6.4 km/h 49.3% 0 mm 186 W/m2
14:29 10.9 °C 0.3 °C 1024.9 hPa Calm   6.4 km/h 47.8% 0 mm 186 W/m2
14:34 10.8 °C 0 °C 1024.9 hPa NW 0.3 km/h 6.4 km/h 47% 0 mm 320 W/m2
14:39 10.9 °C -0.3 °C 1024.6 hPa Calm   3.2 km/h 46.1% 0 mm 283 W/m2
14:44 10.8 °C -0.4 °C 1024.6 hPa Calm   3.2 km/h 45.7% 0 mm 156 W/m2
14:49 10.8 °C -0.1 °C 1024.6 hPa Calm   3.2 km/h 46.8% 0 mm 239 W/m2
14:54 10.8 °C -0.1 °C 1024.6 hPa Calm   3.2 km/h 47.1% 0 mm 239 W/m2
14:59 10.8 °C 0 °C 1024.6 hPa Calm   3.2 km/h 47.2% 0 mm 130 W/m2
15:04 10.8 °C -0.1 °C 1024.6 hPa Calm   3.2 km/h 46.7% 0 mm 155 W/m2
15:09 10.8 °C -0.6 °C 1024.6 hPa Calm     45.1% 0 mm 162 W/m2
15:14 10.8 °C -0.6 °C 1024.6 hPa Calm     45.3% 0 mm 158 W/m2
15:19 10.7 °C -0.4 °C 1024.6 hPa Calm     46.1% 0 mm 278 W/m2
15:24 10.7 °C -0.3 °C 1024.6 hPa Calm   3.2 km/h 46.4% 0 mm 346 W/m2
15:29 10.7 °C -0.5 °C 1024.6 hPa North 0.5 km/h 3.2 km/h 45.7% 0 mm 304 W/m2
15:34 10.7 °C -0.5 °C 1024.6 hPa Calm   3.2 km/h 45.8% 0 mm 134 W/m2
15:39 10.6 °C -0.8 °C 1024.6 hPa NNE 0.2 km/h 3.2 km/h 45% 0 mm 116 W/m2
15:44 10.5 °C -0.8 °C 1024.6 hPa Calm   3.2 km/h 45.3% 0 mm 100 W/m2
15:49 10.4 °C -0.6 °C 1024.6 hPa Calm   3.2 km/h 46.3% 0 mm 93 W/m2
15:54 10.3 °C -0.7 °C 1024.6 hPa Calm   3.2 km/h 46.2% 0 mm 100 W/m2
15:59 10.3 °C -0.4 °C 1024.6 hPa Calm   3.2 km/h 47.3% 0 mm 100 W/m2
16:00 10.3 °C -0.6 °C 1024.3 hPa Calm   3.2 km/h 47% 0 mm 93 W/m2
16:09 10.3 °C -0.1 °C 1024.6 hPa Calm     48.6% 0 mm 98 W/m2
16:14 10.3 °C -0.6 °C 1024.6 hPa Calm   1.6 km/h 46.9% 0 mm 84 W/m2
16:19 10.2 °C -1.2 °C 1024.6 hPa NNE 0.5 km/h 4.8 km/h 45% 0 mm 84 W/m2
16:24 10.1 °C -1.3 °C 1024.6 hPa Calm   4.8 km/h 45% 0 mm 67 W/m2
16:29 10.1 °C -1.1 °C 1024.6 hPa Calm   4.8 km/h 45.8% 0 mm 54 W/m2
16:34 9.9 °C -1.3 °C 1024.6 hPa Calm   4.8 km/h 45.4% 0 mm 60 W/m2
16:39 9.8 °C -1.7 °C 1024.6 hPa Calm     44.5% 0 mm 58 W/m2
16:44 9.8 °C -0.9 °C 1024.3 hPa Calm     47.2% 0 mm 47 W/m2
16:49 9.7 °C -1.1 °C 1024.6 hPa Calm     46.7% 0 mm 46 W/m2
16:54 9.7 °C -0.8 °C 1024.6 hPa Calm     48% 0 mm 44 W/m2
16:59 9.6 °C -0.8 °C 1024.3 hPa Calm     48.2% 0 mm 35 W/m2
17:04 9.6 °C -0.9 °C 1024.3 hPa Calm     48% 0 mm 33 W/m2
17:09 9.4 °C -0.7 °C 1024.3 hPa Calm     49% 0 mm 25 W/m2
17:14 9.4 °C -0.8 °C 1024.3 hPa Calm     49% 0 mm 19 W/m2
17:19 9.3 °C -0.7 °C 1024.3 hPa Calm     49.8% 0 mm 18 W/m2
17:24 9.2 °C -0.7 °C 1024.3 hPa Calm     50% 0 mm 14 W/m2
17:29 9.1 °C -0.9 °C 1024.3 hPa Calm     49.7% 0 mm 11 W/m2
17:34 8.9 °C -0.8 °C 1024.3 hPa Calm     50.5% 0 mm 5 W/m2
17:39 8.8 °C -0.7 °C 1024.3 hPa Calm     51% 0 mm 0 W/m2
17:44 8.7 °C -0.8 °C 1024.3 hPa Calm     51.1% 0 mm 0 W/m2
17:49 8.6 °C -0.7 °C 1024.3 hPa Calm     52% 0 mm 0 W/m2
17:54 8.5 °C -0.8 °C 1024.3 hPa Calm     52% 0 mm 0 W/m2
17:59 8.3 °C -1.1 °C 1024.6 hPa Calm     51.7% 0 mm 0 W/m2
18:04 8.2 °C -0.8 °C 1024.3 hPa Calm     52.7% 0 mm 0 W/m2
18:09 8.1 °C -0.7 °C 1024.3 hPa Calm     53.9% 0 mm 0 W/m2
18:14 7.9 °C -0.6 °C 1024.3 hPa Calm     54.6% 0 mm 0 W/m2
18:19 7.8 °C -0.1 °C 1024.3 hPa Calm     57% 0 mm 0 W/m2
18:24 7.7 °C 0.2 °C 1024.6 hPa Calm     58.9% 0 mm 0 W/m2
18:29 7.6 °C 0.4 °C 1024.6 hPa Calm     60.4% 0 mm 0 W/m2
18:34 7.5 °C 0.5 °C 1024.6 hPa Calm     61.2% 0 mm 0 W/m2
18:39 7.3 °C 0.6 °C 1024.3 hPa Calm     62% 0 mm 0 W/m2
18:44 7.2 °C 0.5 °C 1024.6 hPa Calm     62.2% 0 mm 0 W/m2
18:49 7.1 °C 0.6 °C 1024.6 hPa Calm     63% 0 mm 0 W/m2
18:54 7 °C 0.6 °C 1024.6 hPa Calm     63.5% 0 mm 0 W/m2
18:59 6.9 °C 0.8 °C 1024.3 hPa Calm     65.3% 0 mm 0 W/m2
19:04 6.8 °C 0.8 °C 1024.3 hPa Calm     66% 0 mm 0 W/m2
19:09 6.6 °C 0.8 °C 1024.6 hPa Calm     66.5% 0 mm 0 W/m2
19:14 6.5 °C 0.9 °C 1024.6 hPa Calm     67.5% 0 mm 0 W/m2
19:19 6.4 °C 0.9 °C 1024.6 hPa Calm     68% 0 mm 0 W/m2
19:24 6.3 °C 0.9 °C 1024.6 hPa Calm     68.5% 0 mm 0 W/m2
19:29 6.2 °C 0.9 °C 1024.6 hPa Calm     69% 0 mm 0 W/m2
19:34 6.1 °C 0.8 °C 1024.6 hPa Calm     69% 0 mm 0 W/m2
19:39 6 °C 0.7 °C 1024.6 hPa Calm     69% 0 mm 0 W/m2
19:44 5.9 °C 0.7 °C 1024.6 hPa Calm     69% 0 mm 0 W/m2
19:49 5.8 °C 0.6 °C 1024.6 hPa Calm     69% 0 mm 0 W/m2
19:54 5.8 °C 0.7 °C 1024.6 hPa Calm     69.9% 0 mm 0 W/m2
19:59 5.7 °C 0.7 °C 1024.6 hPa Calm     70% 0 mm 0 W/m2
20:00 5.7 °C 0.6 °C 1024.6 hPa Calm     70% 0 mm 0 W/m2
20:09 5.6 °C 0.6 °C 1024.3 hPa Calm     70% 0 mm 0 W/m2
20:14 5.6 °C 0.6 °C 1024.3 hPa Calm     70.4% 0 mm 0 W/m2
20:19 5.6 °C 0.8 °C 1024.3 hPa Calm     71.5% 0 mm 0 W/m2
20:24 5.5 °C 1.1 °C 1024.3 hPa Calm     73% 0 mm 0 W/m2
20:29 5.4 °C 1 °C 1024.3 hPa Calm     73% 0 mm 0 W/m2
20:34 5.4 °C 0.9 °C 1024.3 hPa Calm     73% 0 mm 0 W/m2
20:39 5.3 °C 0.9 °C 1024.3 hPa Calm     73.1% 0 mm 0 W/m2
20:44 5.3 °C 0.9 °C 1024.3 hPa Calm     73.4% 0 mm 0 W/m2
20:49 5.2 °C 1.1 °C 1024.3 hPa Calm     74.7% 0 mm 0 W/m2
20:54 5.1 °C 1.2 °C 1024.6 hPa Calm     75.9% 0 mm 0 W/m2
20:59 5.1 °C 1.2 °C 1024.3 hPa Calm     76% 0 mm 0 W/m2
21:04 4.9 °C 1.2 °C 1024.3 hPa Calm     76.3% 0 mm 0 W/m2
21:09 4.9 °C 1.2 °C 1024.3 hPa Calm     77% 0 mm 0 W/m2
21:14 4.8 °C 0.9 °C 1024.3 hPa Calm     76.1% 0 mm 0 W/m2
21:19 4.8 °C 0.6 °C 1024.3 hPa Calm     74.5% 0 mm 0 W/m2
21:24 4.7 °C 0.7 °C 1024.3 hPa Calm     75% 0 mm 0 W/m2
21:29 4.7 °C 0.8 °C 1024.3 hPa Calm     76% 0 mm 0 W/m2
21:34 4.7 °C 0.8 °C 1024.3 hPa Calm     76% 0 mm 0 W/m2
21:39 4.6 °C 0.7 °C 1024.3 hPa Calm     76% 0 mm 0 W/m2
21:44 4.6 °C 0.8 °C 1024.3 hPa Calm     77% 0 mm 0 W/m2
21:49 4.4 °C 0.8 °C 1024.3 hPa Calm     77% 0 mm 0 W/m2
21:54 4.4 °C 0.8 °C 1024.3 hPa Calm     77.6% 0 mm 0 W/m2
21:59 4.3 °C 0.8 °C 1024.3 hPa Calm     78% 0 mm 0 W/m2
22:04 4.3 °C 0.8 °C 1024.3 hPa Calm     78% 0 mm 0 W/m2
22:09 4.2 °C 0.7 °C 1024.3 hPa Calm     78% 0 mm 0 W/m2
22:14 4.1 °C 0.7 °C 1024.3 hPa Calm     78% 0 mm 0 W/m2
22:19 4.1 °C 0.6 °C 1024.6 hPa Calm     78% 0 mm 0 W/m2
22:24 4 °C 0.7 °C 1024.6 hPa Calm     78.8% 0 mm 0 W/m2
22:29 3.9 °C 0.6 °C 1024.6 hPa Calm     79% 0 mm 0 W/m2
22:34 3.9 °C 0.7 °C 1024.6 hPa Calm     79.7% 0 mm 0 W/m2
22:39 3.8 °C 0.7 °C 1024.6 hPa Calm     80% 0 mm 0 W/m2
22:44 3.8 °C 0.9 °C 1024.6 hPa Calm     81% 0 mm 0 W/m2
22:49 3.8 °C 0.8 °C 1024.6 hPa Calm     81% 0 mm 0 W/m2
22:54 3.7 °C 0.8 °C 1024.6 hPa Calm     81% 0 mm 0 W/m2
22:59 3.7 °C 0.7 °C 1024.6 hPa Calm     81% 0 mm 0 W/m2
23:04 3.6 °C 0.8 °C 1024.6 hPa Calm     81.8% 0 mm 0 W/m2
23:09 3.5 °C 0.7 °C 1024.6 hPa Calm     82% 0 mm 0 W/m2
23:14 3.4 °C 0.6 °C 1024.6 hPa Calm     81.8% 0 mm 0 W/m2
23:19 3.3 °C 0.6 °C 1024.6 hPa Calm     82% 0 mm 0 W/m2
23:24 3.2 °C 0.4 °C 1024.6 hPa Calm     82% 0 mm 0 W/m2
23:29 3.1 °C 0.3 °C 1024.6 hPa Calm     82% 0 mm 0 W/m2
23:34 3.1 °C 0.3 °C 1024.6 hPa Calm     82% 0 mm 0 W/m2
23:39 2.9 °C 0.2 °C 1024.6 hPa Calm     82% 0 mm 0 W/m2
23:44 2.8 °C 0.1 °C 1024.6 hPa Calm     82% 0 mm 0 W/m2
23:49 2.8 °C 0.2 °C 1024.6 hPa Calm     82.7% 0 mm 0 W/m2
23:54 2.7 °C 0.1 °C 1024.6 hPa Calm     83% 0 mm 0 W/m2
23:59 2.6 °C 0 °C 1024.6 hPa Calm     83% 0 mm 0 W/m2
Hartford County Weather
Compliments of Weather Underground - 4 mb